GW6322 Weather Reports


time (UTC)temp
C
wind
direction
speed
KPH
gust
KPH
rain 1hr
cm
rain 24hr
cm
rain mn
cm
humidity
%
barometer
mb
20260504081537 11 196 3.2 9.7 0.00 0.00 0.00 71 1004.9
20260504044537 15 226 3.2 6.4 0.00 0.00 0.00 55 1006.8
20260504043043 15 192 3.2 6.4 0.00 0.00 0.00 55 1006.9
20260504041535 15 188 3.2 6.4 0.00 0.00 0.00 54 1006.9
20260504040035 16 196 1.6 8.0 0.00 0.00 0.00 53 1006.9
20260504034536 16 195 3.2 9.7 0.00 0.00 0.00 53 1006.9
20260504033039 16 173 4.8 9.7 0.00 0.00 0.00 52 1006.9
20260504031532 17 198 4.8 9.7 0.00 0.00 0.00 50 1007.0
20260504030042 17 205 6.4 12.9 0.00 0.00 0.00 50 1007.0
20260504024533 17 164 8.0 19.3 0.00 0.00 0.00 49 1006.9
20260504023034 18 184 8.0 16.1 0.00 0.00 0.00 49 1006.7
20260504021535 18 170 6.4 12.9 0.00 0.00 0.00 48 1006.6
20260504020040 18 175 6.4 14.5 0.00 0.00 0.00 47 1006.4
20260504014537 19 184 6.4 16.1 0.00 0.00 0.00 46 1006.4
20260504013031 19 198 9.7 17.7 0.00 0.00 0.00 45 1006.2
20260504011532 20 194 6.4 14.5 0.00 0.00 0.00 44 1006.1
20260504010032 20 188 4.8 22.5 0.00 0.00 0.00 44 1006.0
20260504004534 20 175 8.0 17.7 0.00 0.00 0.00 44 1005.9
20260504003033 21 181 9.7 20.9 0.00 0.00 0.00 43 1005.8
20260504001535 21 155 11.3 29.0 0.00 0.00 0.00 43 1005.9
20260504000031 21 198 11.3 32.2 0.00 0.00 0.00 44 1005.7
20260503234531 21 178 9.7 29.0 0.00 0.00 0.00 44 1005.7
20260503233032 21 160 14.5 32.2 0.00 0.00 0.00 42 1005.9
20260503231537 21 202 14.5 33.8 0.00 0.00 0.00 43 1006.0
20260503230033 21 174 14.5 29.0 0.00 0.00 0.00 44 1006.0
20260503224539 21 199 19.3 46.7 0.00 0.00 0.00 42 1006.0
20260503223036 22 197 16.1 35.4 0.00 0.00 0.00 42 1006.2
20260503221536 22 165 19.3 38.6 0.00 0.00 0.00 41 1005.8
20260503220039 22 166 16.1 38.6 0.00 0.00 0.00 40 1006.0
20260503214540 21 146 24.1 46.7 0.00 0.00 0.00 41 1005.9
20260503213032 22 178 17.7 33.8 0.00 0.00 0.00 40 1006.1
20260503211541 22 185 17.7 33.8 0.00 0.00 0.00 40 1006.2
20260503210036 22 134 16.1 37.0 0.00 0.00 0.00 40 1006.3
20260503204537 21 206 17.7 37.0 0.00 0.00 0.00 40 1006.8
20260503203044 21 191 12.9 32.2 0.00 0.00 0.00 40 1006.8
20260503201534 21 185 17.7 41.8 0.00 0.00 0.00 42 1006.9
20260503200046 21 162 16.1 30.6 0.00 0.00 0.00 42 1007.1
20260503194532 20 207 24.1 33.8 0.00 0.00 0.00 42 1007.3
20260503193036 20 147 22.5 40.2 0.00 0.00 0.00 42 1007.7
20260503191542 20 196 20.9 38.6 0.00 0.00 0.00 42 1007.7
20260503190034 20 194 20.9 38.6 0.00 0.00 0.00 44 1007.9
20260503184541 20 172 17.7 40.2 0.00 0.00 0.00 45 1007.9
20260503183040 19 182 17.7 37.0 0.00 0.00 0.00 45 1008.0
20260503181531 18 176 20.9 49.9 0.00 0.00 0.00 45 1008.2
20260503180047 18 160 25.7 49.9 0.00 0.00 0.00 46 1008.5
20260503174545 17 160 27.4 46.7 0.00 0.00 0.00 46 1008.8
20260503173043 17 190 22.5 51.5 0.00 0.00 0.00 46 1009.2
20260503171534 17 206 24.1 57.9 0.00 0.00 0.00 46 1009.2